Stations météo

Publicité
St-Etienne Boutheon, France (7475): Température de l'air & dewpoint: 11.08.2019 16:00:00 - 17.08.2019 16:00:00 (CEST)St-Etienne Boutheon, France (7475): Température de l'air 5cm: 11.08.2019 16:00:00 - 17.08.2019 16:00:00 (CEST)St-Etienne Boutheon, France (7475): Température de l'air -20cm & Température de l'air -100cm: 11.08.2019 16:00:00 - 17.08.2019 16:00:00 (CEST)St-Etienne Boutheon, France (7475): Vitesse du vent & gusts: 11.08.2019 16:00:00 - 17.08.2019 16:00:00 (CEST)St-Etienne Boutheon, France (7475): Direction du vent: 11.08.2019 16:00:00 - 17.08.2019 16:00:00 (CEST)St-Etienne Boutheon, France (7475): reduced air pressure: 11.08.2019 16:00:00 - 17.08.2019 16:00:00 (CEST)St-Etienne Boutheon, France (7475): visibility: 11.08.2019 16:00:00 - 17.08.2019 16:00:00 (CEST)St-Etienne Boutheon, France (7475): Ensoleillement: 11.08.2019 16:00:00 - 17.08.2019 16:00:00 (CEST)St-Etienne Boutheon, France (7475): Quantités de précipitations: 11.08.2019 16:00:00 - 17.08.2019 16:00:00 (CEST)
Date & Time tt [°C] td [°C] tt 5cm [°C] tt -20cm [°C] tt -100cm [°C] ff [km/h] ff [knt] fx [km/h] fx [knt] dd ppp [hPa] vv [km] sd [min] rr [mm]
17.08.2019 16:00:00 32,1 9,0 34,9 22,5 20,2 21 11 34 18 SW 1011,0 21 60 0,0
17.08.2019 15:00:00 31,7 9,8 29,0 21,9 20,1 15 8 29 16 SW 1011,3 16 40 0,0
17.08.2019 14:00:00 29,3 9,9 31,4 21,4 20,2 13 7 44 24 SSW 1012,3 10 49 0,0
17.08.2019 13:00:00 28,9 9,1 32,4 21,0 20,2 19 11 34 18 S 1013,0 11 60 0,0
17.08.2019 12:00:00 26,5 9,4 25,8 20,7 20,2 18 10 27 14 S 1013,8 12 18 0,0
17.08.2019 11:00:00 24,6 10,1 25,7 20,5 20,1 21 11 32 18 S 1014,3 6 49 0,0
17.08.2019 10:00:00 23,8 10,5 25,3 20,5 20,1 20 11 28 15 S 1014,3 4,5 60 0,0
17.08.2019 09:00:00 21,8 10,6 17,3 20,6 20,2 14 8 22 12 SSE 1014,9 6 55 0,0
17.08.2019 08:00:00 15,4 12,5 12,9 20,8 20,2 3 1 5 3 S 1015,7 54 3 0,0
17.08.2019 07:00:00 14,3 11,4 12,7 21,0 20,1 3 1 9 5 WNW 1015,8 60 0 0,0
17.08.2019 06:00:00 13,5 11,0 12,3 21,3 20,2 4 2 15 8 NE 1015,9 60 0 0,0
17.08.2019 05:00:00 17,2 9,6 10,5 21,6 20,2 13 7 20 11 S 1015,3 60 0 0,0
17.08.2019 04:00:00 14,2 10,6 10,7 21,9 20,2 4 2 17 9 SSW 1016,0 60 0 0,0
17.08.2019 03:00:00 14,3 11,3 10,1 22,3 20,2 5 3 16 9 S 1015,8 60 0 0,0
17.08.2019 02:00:00 14,7 11,8 10,8 22,6 20,2 4 2 8 4 S 1016,1 57 0 0,0
17.08.2019 01:00:00 15,7 11,7 11,9 23,0 20,2 5 3 13 7 SSW 1016,0 60 0 0,0
17.08.2019 00:00:00 16,8 11,9 12,0 23,4 20,2 11 6 16 8 SSE 1015,8 60 0 0,0
16.08.2019 23:00:00 17,4 11,4 13,6 23,8 20,2 7 4 10 5 SSE 1015,9 60 0 0,0
16.08.2019 22:00:00 18,3 12,1 14,3 24,1 20,2 4 2 11 6 ESE 1015,7 60 0 0,0
16.08.2019 21:00:00 19,8 12,5 15,9 24,3 20,2 9 5 11 6 SSE 1015,0 16 1 0,0
16.08.2019 20:00:00 23,9 12,2 22,8 24,2 20,2 9 5 18 10 SE 1014,3 60 39 0,0
16.08.2019 19:00:00 25,5 10,9 27,1 24,0 20,2 7 4 16 9 SE 1014,2 48 56 0,0
16.08.2019 18:00:00 25,9 11,6 29,7 23,6 20,2 5 3 18 10 SE 1014,6 58 60 0,0
16.08.2019 17:00:00 24,7 12,0 28,9 23,0 20,2 6 3 16 9 NNE 1015,5 57 44 0,0
16.08.2019 16:00:00 24,6 12,9 30,6 22,3 20,2 6 4 19 11 NE 1016,1 38 60 0,0
16.08.2019 15:00:00 23,8 12,1 29,8 21,6 20,2 8 4 20 11 NE 1016,6 60 60 0,0
16.08.2019 14:00:00 22,7 12,0 28,2 20,8 20,2 6 3 16 9 NW 1017,5 60 56 0,0
16.08.2019 13:00:00 21,8 12,6 27,5 20,2 20,2 5 3 23 12 S 1018,1 20 56 0,0
16.08.2019 12:00:00 20,6 12,0 27,6 19,8 20,2 4 2 12 7 E 1018,6 52 60 0,0
16.08.2019 11:00:00 18,8 11,6 25,4 19,5 20,2 4 2 13 7 NNW 1019,8 52 60 0,0
16.08.2019 10:00:00 17,5 11,3 20,5 19,5 20,2 4 2 11 6 WSW 1020,4 57 58 0,0
16.08.2019 09:00:00 15,4 11,6 15,3 19,7 20,2 5 3 9 5 W 1021,0 58 58 0,2
16.08.2019 08:00:00 12,2 11,1 6,9 20,0 20,2 3 2 5 3 NNE 1021,7 42 53 0,0
16.08.2019 07:00:00 9,7 9,1 6,0 20,3 20,2 4 2 5 3 S 1021,9 17 0 0,0
16.08.2019 06:00:00 10,2 9,4 6,7 20,6 20,2 0 0 6 4 N 1021,8 44 0 0,0
16.08.2019 05:00:00 11,0 10,7 6,6 21,0 20,3 4 2 7 4 SSE 1021,7 52 0 0,0
16.08.2019 04:00:00 11,5 10,4 7,8 21,3 20,2 5 3 8 4 S 1022,2 58 0 0,0
16.08.2019 03:00:00 12,8 10,5 8,3 21,6 20,3 3 1 7 4 SW 1022,3 60 0 0,0
16.08.2019 02:00:00 13,9 11,6 10,8 21,9 20,3 3 1 9 5 ENE 1022,1 60 0 0,0
16.08.2019 01:00:00 15,4 11,8 12,1 22,2 20,3 0 0 6 3 N 1021,6 60 0 0,0
16.08.2019 00:00:00 16,4 11,5 14,9 22,5 20,3 0 0 7 4 N 1021,7 60 0 0,0
15.08.2019 23:00:00 16,5 11,4 11,2 22,8 20,3 3 2 7 4 N 1021,3 60 0 0,0
15.08.2019 22:00:00 17,8 11,1 13,3 23,1 20,3 0 0 14 7 N 1020,8 60 0 0,0
15.08.2019 21:00:00 19,4 11,4 17,8 23,3 20,3 8 5 27 14 N 1019,9 60 8 0,0
15.08.2019 20:00:00 20,6 11,2 19,9 23,3 20,3 15 8 28 15 N 1019,1 60 42 0,0
15.08.2019 19:00:00 21,7 11,1 22,3 23,2 20,3 18 10 31 17 N 1018,5 58 4 0,0
15.08.2019 18:00:00 23,1 9,8 24,4 22,8 20,4 15 8 39 21 NNW 1017,8 57 55 0,0
15.08.2019 17:00:00 23,9 10,9 29,9 22,3 20,3 16 9 35 19 NNW 1017,5 60 60 0,0
15.08.2019 16:00:00 23,3 12,0 23,4 21,7 20,4 13 7 32 18 NNW 1017,6 60 43 0,0
15.08.2019 15:00:00 23,2 13,9 23,4 21,2 20,3 8 4 22 12 NW 1017,7 40 20 0,0
15.08.2019 14:00:00 21,4 14,1 25,2 20,7 20,3 11 6 29 15 N 1018,1 60 33 0,0
15.08.2019 13:00:00 20,8 14,7 21,8 20,4 20,4 11 6 29 16 NE 1018,1 46 38 0,0
15.08.2019 12:00:00 19,8 13,0 21,3 20,2 20,4 12 6 20 11 N 1018,5 58 0 0,2
15.08.2019 11:00:00 19,1 13,7 16,6 20,1 20,4 10 6 15 8 S 1018,1 56 0 0,0
15.08.2019 10:00:00 18,7 13,3 16,4 20,1 20,4 7 4 18 10 S 1017,8 13 13 0,0
15.08.2019 09:00:00 19,5 12,3 16,2 20,2 20,4 12 7 19 10 S 1017,0 56 38 0,0
15.08.2019 08:00:00 16,3 11,7 14,0 20,4 20,4 10 5 19 11 S 1017,2 60 0 0,0
15.08.2019 07:00:00 15,3 10,7 13,8 20,7 20,4 8 4 17 9 SSE 1017,6 55 0 0,0
15.08.2019 06:00:00 15,4 10,4 12,9 20,9 20,4 10 6 18 10 SSE 1017,3 60 0 0,0
15.08.2019 05:00:00 15,0 10,2 12,7 21,2 20,4 9 5 16 9 SSE 1017,8 60 0 0,0
15.08.2019 04:00:00 14,6 10,8 12,0 21,5 20,4 10 5 15 8 SSE 1017,8 60 0 0,0
15.08.2019 03:00:00 14,4 10,8 11,3 21,8 20,4 9 5 11 6 S 1018,2 60 0 0,0
15.08.2019 02:00:00 14,0 11,0 11,3 22,3 20,4 3 2 10 5 NE 1018,4 60 0 0,0
15.08.2019 01:00:00 14,3 11,8 11,2 22,6 20,4 2 1 7 4 ESE 1018,7 60 0 0,0
15.08.2019 00:00:00 14,7 12,0 11,5 23,0 20,5 2 1 6 3 NW 1018,6 60 0 0,0
14.08.2019 23:00:00 15,2 11,2 11,4 23,5 20,5 3 2 9 5 SSE 1018,0 60 0 0,0
14.08.2019 22:00:00 17,0 11,7 12,7 23,8 20,5 5 3 8 4 SSE 1017,7 60 0 0,0
14.08.2019 21:00:00 20,6 11,8 16,5 24,0 20,5 4 2 8 5 WNW 1016,6 60 26 0,0
14.08.2019 20:00:00 23,8 10,5 23,5 24,0 20,5 3 2 8 5 NW 1016,0 60 60 0,0
14.08.2019 19:00:00 24,0 9,2 27,5 23,8 20,5 4 2 14 7 NNW 1016,0 57 60 0,0
14.08.2019 18:00:00 23,7 8,1 29,5 23,2 20,5 6 3 20 11 NNW 1016,4 59 60 0,0
14.08.2019 17:00:00 23,0 9,7 28,5 22,6 20,5 6 3 15 8 NNE 1016,9 50 60 0,0
14.08.2019 16:00:00 22,6 9,7 29,4 21,8 20,5 7 4 21 11 NNW 1017,6 56 60 0,0
14.08.2019 15:00:00 21,8 10,0 27,5 20,9 20,5 10 5 24 13 NNW 1018,1 60 60 0,0
14.08.2019 14:00:00 21,4 9,6 28,3 20,0 20,6 11 6 20 11 WNW 1018,7 60 60 0,0
14.08.2019 13:00:00 20,2 9,1 27,6 19,3 20,5 5 3 18 10 ENE 1019,3 54 60 0,0
14.08.2019 12:00:00 19,0 9,2 25,8 18,7 20,6 8 4 19 10 NW 1020,0 55 60 0,0
14.08.2019 11:00:00 17,3 9,0 23,3 18,4 20,5 6 4 17 9 NNW 1020,8 44 60 0,0
14.08.2019 10:00:00 15,6 8,1 20,4 18,4 20,6 5 3 10 5 NNE 1021,1 57 60 0,0
14.08.2019 09:00:00 14,3 7,6 12,5 18,5 20,6 4 2 9 5 ENE 1021,0 42 60 0,0
14.08.2019 08:00:00 10,6 9,0 7,4 18,7 20,6 0 0 7 4 N 1021,9 9 16 0,0
14.08.2019 07:00:00 9,0 8,2 6,8 19,0 20,6 0 0 8 4 N 1021,5 38 0 0,0
14.08.2019 06:00:00 9,1 8,0 6,9 19,3 20,6 3 2 7 4 SE 1021,6 41 0 0,0
14.08.2019 05:00:00 8,7 7,9 5,4 19,7 20,6 2 1 5 3 NE 1021,7 38 0 0,0
14.08.2019 04:00:00 8,9 7,7 5,5 20,0 20,6 4 2 6 4 SSE 1022,0 47 0 0,0
14.08.2019 03:00:00 8,7 7,3 6,0 20,5 20,7 3 2 9 5 SSE 1022,3 47 0 0,0
14.08.2019 02:00:00 10,1 8,0 6,2 20,9 20,7 6 3 8 5 S 1022,2 54 0 0,0
14.08.2019 01:00:00 10,4 8,5 7,2 21,3 20,7 4 2 8 4 SE 1022,2 55 0 0,0
14.08.2019 00:00:00 10,4 8,3 7,9 21,7 20,7 2 1 5 3 SW 1022,0 59 0 0,0
13.08.2019 23:00:00 13,1 8,8 9,1 22,1 20,7 3 2 8 4 WSW 1021,3 60 0 0,0
13.08.2019 22:00:00 15,6 8,3 11,8 22,5 20,7 3 1 14 7 NNW 1020,6 60 0 0,0
13.08.2019 21:00:00 17,6 7,9 15,2 22,7 20,7 8 5 22 12 N 1020,0 60 29 0,0
13.08.2019 20:00:00 19,2 7,6 18,9 22,9 20,7 16 9 31 17 N 1019,3 48 60 0,0
13.08.2019 19:00:00 20,4 8,4 22,4 22,8 20,7 18 10 30 16 N 1019,0 59 60 0,0
13.08.2019 18:00:00 20,8 7,4 22,8 22,6 20,8 16 9 33 18 N 1018,9 60 54 0,0
13.08.2019 17:00:00 20,5 7,5 21,5 22,2 20,8 16 9 34 19 N 1019,1 39 47 0,0
13.08.2019 16:00:00 20,7 8,0 26,4 21,7 20,8 19 10 34 19 N 1019,3 60 60 0,0
13.08.2019 15:00:00 20,4 8,1 21,0 21,2 20,8 16 9 33 18 N 1019,6 60 48 0,0
13.08.2019 14:00:00 20,2 7,5 21,7 20,6 20,8 16 8 32 17 NNW 1020,1 60 48 0,0
13.08.2019 13:00:00 19,3 9,2 22,2 19,9 20,8 15 8 32 18 N 1020,4 60 53 0,0
13.08.2019 12:00:00 17,9 10,8 22,1 19,5 20,8 14 8 41 22 NNW 1021,1 51 55 0,0
13.08.2019 11:00:00 17,1 11,6 19,7 19,3 20,8 15 8 26 14 N 1021,7 40 38 0,0
13.08.2019 10:00:00 15,6 11,6 17,0 19,2 20,8 14 7 24 13 N 1022,1 60 41 0,0
13.08.2019 09:00:00 14,9 11,1 17,3 19,3 20,8 12 6 25 14 N 1022,1 56 60 0,0
13.08.2019 08:00:00 13,5 11,2 12,2 19,5 20,8 8 4 13 7 NNW 1022,1 53 16 0,0
13.08.2019 07:00:00 12,7 10,9 10,7 19,8 20,8 7 4 11 6 N 1022,1 59 0 0,0
13.08.2019 06:00:00 11,5 10,6 9,2 20,1 20,8 2 1 7 4 W 1022,1 52 0 0,0
13.08.2019 05:00:00 11,1 10,2 8,5 20,4 20,9 4 2 8 4 S 1021,8 60 0 0,2
13.08.2019 04:00:00 10,5 9,9 7,7 20,8 20,9 4 2 8 4 SSE 1022,1 60 0 0,0
13.08.2019 03:00:00 11,2 9,9 8,6 21,3 20,9 2 1 9 5 ESE 1022,2 60 0 0,0
13.08.2019 02:00:00 11,9 10,1 9,1 21,7 20,9 3 2 9 5 SSE 1022,1 60 0 0,0
13.08.2019 01:00:00 12,5 10,6 9,1 22,1 20,9 2 1 5 3 SSE 1022,0 60 0 0,0
13.08.2019 00:00:00 13,9 10,5 10,5 22,5 20,9 0 0 11 6 N 1021,6 60 0 0,0
12.08.2019 23:00:00 15,7 8,9 12,3 22,9 20,9 3 1 13 7 NNW 1021,1 60 0 0,0
12.08.2019 22:00:00 17,8 9,4 15,7 23,3 21,0 5 3 21 12 NNW 1020,3 60 0 0,0
12.08.2019 21:00:00 18,7 12,9 17,7 23,5 20,9 6 4 18 10 NW 1019,0 60 15 0,0
12.08.2019 20:00:00 19,5 12,7 18,6 23,6 21,0 7 4 24 13 NE 1017,7 60 16 0,0
12.08.2019 19:00:00 21,7 11,7 22,2 23,5 21,0 13 7 23 12 NW 1016,8 57 31 0,0
12.08.2019 18:00:00 22,1 13,4 25,2 23,0 21,0 10 6 22 12 N 1016,4 60 47 0,0
12.08.2019 17:00:00 22,1 11,2 25,6 22,4 21,0 6 3 16 9 N 1016,5 59 52 0,0
12.08.2019 16:00:00 21,5 11,5 26,3 21,8 21,0 8 4 16 9 NE 1017,1 46 57 0,0
12.08.2019 15:00:00 20,1 12,3 24,9 21,1 21,0 6 3 18 10 NNE 1017,7 54 17 0,0
12.08.2019 14:00:00 20,0 13,2 24,2 20,5 21,0 6 4 16 9 NW 1018,0 58 35 0,0
12.08.2019 13:00:00 18,7 12,4 20,9 20,0 21,0 5 3 14 8 ENE 1018,5 20 31 0,0
12.08.2019 12:00:00 17,4 12,5 20,1 19,7 21,0 4 2 11 6 W 1019,0 55 2 0,0
12.08.2019 11:00:00 16,5 13,2 18,5 19,5 21,1 4 2 12 6 W 1019,1 20 20 0,0
12.08.2019 10:00:00 15,2 13,7 14,4 19,5 21,1 4 2 8 5 E 1018,9 34 3 0,4
12.08.2019 09:00:00 13,9 13,3 13,4 19,6 21,1 3 2 9 5 SSE 1019,1 43 0 0,4
12.08.2019 08:00:00 13,5 13,2 12,9 19,7 21,1 6 3 16 9 NNE 1018,4 15 0 0,6
12.08.2019 07:00:00 13,3 13,0 12,4 19,9 21,1 5 3 24 13 SW 1020,1 5 0 0,4
12.08.2019 06:00:00 13,1 12,8 12,4 20,0 21,1 4 2 9 5 E 1018,1 20 0 0,0
12.08.2019 05:00:00 13,4 13,1 11,4 20,3 21,1 5 3 8 5 SW 1019,2 30 0 0,0
12.08.2019 04:00:00 12,3 11,8 11,0 20,5 21,1 4 2 9 5 SSE 1019,0 13 0 0,0
12.08.2019 03:00:00 12,9 12,7 10,7 20,7 21,1 4 2 9 5 SSE 1019,5 11 0 0,0
12.08.2019 02:00:00 13,9 13,3 12,6 20,8 21,0 3 2 9 5 SSW 1019,5 35 0 0,0
12.08.2019 01:00:00 14,2 13,4 13,6 21,0 21,0 4 2 6 4 W 1019,9 39 0 -
12.08.2019 00:00:00 14,1 13,3 13,1 21,2 21,1 3 2 7 4 S 1020,2 44 0 0,0
11.08.2019 23:00:00 14,2 13,2 13,6 21,4 21,1 4 2 8 4 ESE 1019,6 47 0 0,0
11.08.2019 22:00:00 14,0 13,0 13,3 21,6 21,0 7 4 12 6 S 1019,7 49 0 0,0
11.08.2019 21:00:00 14,1 12,8 13,7 21,8 21,0 5 3 12 6 SSW 1019,3 55 4 2,4
11.08.2019 20:00:00 13,7 12,9 13,5 22,0 21,0 4 2 10 5 SE 1019,0 11 0 9,9
11.08.2019 19:00:00 13,4 12,9 13,4 23,0 20,9 6 4 15 8 SSW 1018,8 1,0 0 8,9
11.08.2019 18:00:00 13,4 12,9 13,3 23,8 20,9 4 2 27 14 N 1018,8 14 0 7,1
11.08.2019 17:00:00 13,5 12,7 13,8 24,3 20,9 17 9 35 19 N 1018,5 13 0 3,2
11.08.2019 16:00:00 15,3 14,5 15,2 24,5 20,9 13 7 29 16 NNW 1017,5 5 0 1,2

tt = Température de l'air
td = dewpoint
tt 5cm = Température de l'air 5cm
tt -20cm = Température de l'air -20cm
tt -100cm = Température de l'air -100cm
ff = Vitesse du vent
fx = gusts
dd = Direction du vent
ppp = reduced air pressure
vv = visibility
sd = Ensoleillement
rr = Quantités de précipitations

stations d'obs. à proximité